TimeEST,TemperatureF,Dew PointF,Humidity,Sea Level PressureIn,VisibilityMPH,Wind Direction,Wind SpeedMPH,Gust SpeedMPH,PrecipitationIn,Events,Conditions,WindDirDegrees,DateUTC
12:15 AM,27.7,26.6,96,30.51,7.0,Calm,Calm,-,N/A,,Clear,0,2012-11-18 05:15:00
12:35 AM,26.2,25.9,99,30.51,5.0,Calm,Calm,-,N/A,,Clear,0,2012-11-18 05:35:00
12:55 AM,27.5,27.1,99,30.51,5.0,Calm,Calm,-,N/A,,Clear,0,2012-11-18 05:55:00
1:15 AM,28.4,28.4,100,30.51,4.0,North,4.6,-,N/A,,Clear,360,2012-11-18 06:15:00
1:35 AM,27.7,27.5,99,30.51,5.0,Calm,Calm,-,N/A,,Clear,0,2012-11-18 06:35:00
1:56 AM,28.4,28.4,100,30.51,5.0,Calm,Calm,-,N/A,,Clear,0,2012-11-18 06:56:00
2:11 AM,28.4,28.0,99,30.50,5.0,Calm,Calm,-,N/A,,Clear,0,2012-11-18 07:11:00
2:31 AM,26.1,25.5,98,30.50,4.0,Calm,Calm,-,N/A,,Clear,0,2012-11-18 07:31:00
2:51 AM,28.4,28.4,100,30.51,4.0,Calm,Calm,-,N/A,,Clear,0,2012-11-18 07:51:00
3:11 AM,28.4,28.4,100,30.50,5.0,Calm,Calm,-,N/A,,Clear,0,2012-11-18 08:11:00
3:31 AM,28.4,28.4,100,30.50,4.0,Calm,Calm,-,N/A,,Clear,0,2012-11-18 08:31:00
3:51 AM,26.1,26.1,100,30.49,4.0,SE,3.5,-,N/A,,Clear,140,2012-11-18 08:51:00
4:11 AM,28.4,28.4,100,30.49,4.0,Calm,Calm,-,N/A,,Clear,0,2012-11-18 09:11:00
4:32 AM,26.1,25.5,98,30.49,5.0,Calm,Calm,-,N/A,,Clear,0,2012-11-18 09:32:00
5:12 AM,24.1,23.5,98,30.49,7.0,Calm,Calm,-,N/A,,Clear,0,2012-11-18 10:12:00
5:32 AM,23.9,23.4,98,30.49,5.0,Calm,Calm,-,N/A,,Clear,0,2012-11-18 10:32:00
5:52 AM,24.3,24.1,99,30.49,7.0,Calm,Calm,-,N/A,,Clear,0,2012-11-18 10:52:00
6:12 AM,24.6,23.9,97,30.49,5.0,Calm,Calm,-,N/A,,Clear,0,2012-11-18 11:12:00
6:32 AM,25.9,25.3,98,30.49,4.0,Calm,Calm,-,N/A,,Clear,0,2012-11-18 11:32:00
6:53 AM,24.3,23.7,98,30.49,4.0,Calm,Calm,-,N/A,,Clear,0,2012-11-18 11:53:00
7:13 AM,26.1,25.3,97,30.49,5.0,Calm,Calm,-,N/A,,Clear,0,2012-11-18 12:13:00
7:33 AM,25.0,23.9,96,30.49,5.0,Calm,Calm,-,N/A,,Clear,0,2012-11-18 12:33:00
7:53 AM,24.3,23.5,97,30.49,4.0,Calm,Calm,-,N/A,,Clear,0,2012-11-18 12:53:00
8:13 AM,25.9,25.5,99,30.49,2.5,Calm,Calm,-,N/A,,Clear,0,2012-11-18 13:13:00
8:33 AM,26.1,25.3,97,30.49,3.0,Calm,Calm,-,N/A,,Clear,0,2012-11-18 13:33:00
8:53 AM,28.4,28.4,100,30.49,3.0,Calm,Calm,-,N/A,,Clear,0,2012-11-18 13:53:00
9:13 AM,28.4,28.2,99,30.49,3.0,Calm,Calm,-,N/A,,Clear,0,2012-11-18 14:13:00
9:34 AM,30.7,30.2,98,30.49,3.0,Calm,Calm,-,N/A,,Clear,0,2012-11-18 14:34:00
9:54 AM,33.3,32.9,99,30.49,3.0,Calm,Calm,-,N/A,,Clear,0,2012-11-18 14:54:00
10:14 AM,36.5,34.7,93,30.49,4.0,Calm,Calm,-,N/A,,Clear,0,2012-11-18 15:14:00
10:34 AM,39.0,34.5,84,30.49,5.0,Calm,Calm,-,N/A,,Clear,0,2012-11-18 15:34:00
10:54 AM,41.7,35.4,78,30.49,5.0,Calm,Calm,-,N/A,,Haze,0,2012-11-18 15:54:00
11:14 AM,47.7,35.8,63,30.48,7.0,SSE,3.5,-,N/A,,Clear,160,2012-11-18 16:14:00
11:34 AM,49.6,32.2,51,30.48,10.0,SSW,8.1,-,N/A,,Clear,200,2012-11-18 16:34:00
11:55 AM,49.5,30.9,49,30.47,10.0,SSW,9.2,-,N/A,,Clear,200,2012-11-18 16:55:00
12:15 PM,51.4,32.0,47,30.46,10.0,South,6.9,-,N/A,,Clear,190,2012-11-18 17:15:00
12:35 PM,53.4,32.5,45,30.45,10.0,South,8.1,-,N/A,,Clear,190,2012-11-18 17:35:00
12:55 PM,53.4,32.0,44,30.45,10.0,SSE,6.9,-,N/A,,Clear,160,2012-11-18 17:55:00
1:15 PM,53.6,31.5,43,30.44,10.0,SSW,6.9,-,N/A,,Clear,210,2012-11-18 18:15:00
1:35 PM,53.6,31.8,44,30.44,10.0,South,5.8,-,N/A,,Clear,180,2012-11-18 18:35:00
1:55 PM,52.3,30.9,44,30.44,10.0,South,9.2,-,N/A,,Clear,170,2012-11-18 18:55:00
2:15 PM,53.6,30.4,41,30.43,10.0,SSE,6.9,-,N/A,,Clear,160,2012-11-18 19:15:00
2:36 PM,53.6,29.8,40,30.42,10.0,SSW,8.1,-,N/A,,Clear,200,2012-11-18 19:36:00
2:51 PM,53.6,29.8,40,30.42,10.0,South,8.1,-,N/A,,Clear,190,2012-11-18 19:51:00
3:11 PM,53.6,28.4,38,30.42,10.0,South,8.1,-,N/A,,Clear,180,2012-11-18 20:11:00
3:31 PM,53.6,29.3,39,30.41,10.0,SSE,9.2,-,N/A,,Clear,160,2012-11-18 20:31:00
3:51 PM,53.6,29.5,40,30.41,10.0,South,5.8,-,N/A,,Clear,180,2012-11-18 20:51:00
4:11 PM,52.9,30.2,42,30.41,10.0,South,6.9,-,N/A,,Clear,180,2012-11-18 21:11:00
4:31 PM,49.3,28.8,45,30.42,10.0,SE,4.6,-,N/A,,Clear,140,2012-11-18 21:31:00
4:51 PM,48.4,28.6,46,30.42,10.0,SE,5.8,-,N/A,,Clear,140,2012-11-18 21:51:00
5:12 PM,47.5,29.5,50,30.42,10.0,SE,6.9,-,N/A,,Clear,140,2012-11-18 22:12:00
5:32 PM,44.4,28.0,53,30.42,10.0,SSE,4.6,-,N/A,,Clear,150,2012-11-18 22:32:00
5:52 PM,41.7,27.5,57,30.42,10.0,ESE,3.5,-,N/A,,Clear,120,2012-11-18 22:52:00
6:12 PM,36.0,27.1,70,30.42,10.0,East,3.5,-,N/A,,Clear,100,2012-11-18 23:12:00
6:32 PM,37.8,28.4,69,30.42,10.0,Calm,Calm,-,N/A,,Clear,0,2012-11-18 23:32:00
6:52 PM,35.8,27.5,72,30.42,10.0,Calm,Calm,-,N/A,,Clear,0,2012-11-18 23:52:00
7:12 PM,33.3,27.5,79,30.43,10.0,Calm,Calm,-,N/A,,Clear,0,2012-11-19 00:12:00
7:33 PM,33.3,27.9,81,30.43,10.0,Calm,Calm,-,N/A,,Clear,0,2012-11-19 00:33:00
7:53 PM,33.3,29.8,87,30.43,10.0,Calm,Calm,-,N/A,,Clear,0,2012-11-19 00:53:00
8:13 PM,31.8,27.9,85,30.42,10.0,Calm,Calm,-,N/A,,Clear,0,2012-11-19 01:13:00
8:33 PM,29.3,27.0,91,30.41,10.0,Calm,Calm,-,N/A,,Clear,0,2012-11-19 01:33:00
8:53 PM,31.1,29.3,93,30.41,10.0,NNE,3.5,-,N/A,,Clear,20,2012-11-19 01:53:00
9:13 PM,33.1,31.8,95,30.41,7.0,Calm,Calm,-,N/A,,Clear,0,2012-11-19 02:13:00
9:33 PM,31.1,29.5,94,30.41,7.0,ENE,3.5,-,N/A,,Clear,60,2012-11-19 02:33:00
9:53 PM,28.8,27.9,96,30.40,7.0,East,3.5,-,N/A,,Clear,90,2012-11-19 02:53:00
10:14 PM,29.1,28.4,97,30.40,5.0,Calm,Calm,-,N/A,,Clear,0,2012-11-19 03:14:00
10:34 PM,29.1,28.6,98,30.40,5.0,Calm,Calm,-,N/A,,Clear,0,2012-11-19 03:34:00
10:54 PM,29.8,29.5,99,30.40,4.0,Calm,Calm,-,N/A,,Clear,0,2012-11-19 03:54:00
11:14 PM,28.4,28.4,100,30.40,5.0,Calm,Calm,-,N/A,,Clear,0,2012-11-19 04:14:00
11:34 PM,28.9,28.9,100,30.39,4.0,Calm,Calm,-,N/A,,Clear,0,2012-11-19 04:34:00